TTW241 RJFF-RCTP

Flight info

Callsign TTW241
Flight time 2h 15m
Altitude 36000
Route YAMGA HKC A1 DRAKE DRAKE1A
Aircraft A320/M-SDE1E2FGHIRWY/LB1

Departure

Time 2026-05-04 11:26
Airport Fukuoka Airport (RJFF)

Arrival

Time 2026-05-04 13:41
Airport Taiwan Taoyuan International Airport (RCTP)
Time Latitude Longitude Altitude Speed Heading
2026-05-04 11:06 33.58567 130.44495 34 ft 0 kts 242°
2026-05-04 11:19 33.58654 130.44575 34 ft 1 kts 150°
2026-05-04 11:22 33.58291 130.44883 38 ft 16 kts 151°
2026-05-04 11:22 33.58186 130.44953 37 ft 18 kts 150°
2026-05-04 11:23 33.58070 130.45030 37 ft 20 kts 151°
2026-05-04 11:23 33.57939 130.45119 35 ft 22 kts 151°
2026-05-04 11:24 33.57673 130.45434 45 ft 6 kts 356°
2026-05-04 11:25 33.57724 130.45408 44 ft 10 kts 331°
2026-05-04 11:25 33.57877 130.45304 40 ft 56 kts 330°
2026-05-04 11:25 33.58409 130.44939 38 ft 117 kts 330°
2026-05-04 11:26 33.60148 130.43661 800 ft 149 kts 326°
2026-05-04 11:27 33.67994 130.42649 3645 ft 271 kts 55°
2026-05-04 11:28 33.68859 130.44660 4556 ft 273 kts 63°
2026-05-04 11:28 33.69538 130.46797 5450 ft 277 kts 77°
2026-05-04 11:28 33.69374 130.49116 6305 ft 288 kts 110°
2026-05-04 11:28 33.68178 130.51043 7050 ft 295 kts 141°
2026-05-04 11:29 33.66485 130.52454 7784 ft 299 kts 150°
2026-05-04 11:29 33.64657 130.53688 8511 ft 303 kts 154°
2026-05-04 11:29 33.62684 130.54605 9226 ft 306 kts 164°
2026-05-04 11:29 33.60658 130.55466 9961 ft 312 kts 162°
2026-05-04 11:31 33.44010 130.63765 12637 ft 401 kts 163°
2026-05-04 11:33 33.24807 130.70268 16487 ft 417 kts 169°
2026-05-04 11:33 33.22010 130.71214 17018 ft 419 kts 169°
2026-05-04 11:33 33.19201 130.72162 17561 ft 421 kts 169°
2026-05-04 11:34 33.16372 130.73113 18121 ft 423 kts 169°
2026-05-04 11:34 33.13531 130.74067 18609 ft 425 kts 170°
2026-05-04 11:34 33.10646 130.74752 19060 ft 421 kts 179°
2026-05-04 11:34 33.07730 130.74877 19526 ft 416 kts 189°
2026-05-04 11:35 33.04860 130.74560 20036 ft 414 kts 192°
2026-05-04 11:35 33.01993 130.74203 20541 ft 415 kts 193°
2026-05-04 11:35 32.99116 130.73847 21012 ft 416 kts 193°
2026-05-04 11:35 32.96231 130.73494 21464 ft 418 kts 193°
2026-05-04 11:36 32.93331 130.73141 21903 ft 419 kts 193°
2026-05-04 11:36 32.90425 130.72790 22312 ft 421 kts 194°
2026-05-04 11:36 32.87504 130.72438 22748 ft 421 kts 194°
2026-05-04 11:36 32.84594 130.72088 23243 ft 421 kts 194°
2026-05-04 11:37 32.81677 130.71734 23690 ft 421 kts 194°
2026-05-04 11:37 32.78799 130.71382 24020 ft 422 kts 194°
2026-05-04 11:37 32.75874 130.71025 24369 ft 423 kts 194°
2026-05-04 11:37 32.72908 130.70662 24734 ft 423 kts 194°
2026-05-04 11:38 32.69975 130.70305 25091 ft 424 kts 194°
2026-05-04 11:38 32.67086 130.69955 25450 ft 423 kts 194°
2026-05-04 11:38 32.64168 130.69603 25930 ft 420 kts 194°
2026-05-04 11:38 32.61271 130.69257 26462 ft 416 kts 195°
2026-05-04 11:39 32.58402 130.68917 26979 ft 413 kts 195°
2026-05-04 11:39 32.55549 130.68579 27494 ft 411 kts 195°
2026-05-04 11:40 32.38823 130.66547 30420 ft 396 kts 197°
2026-05-04 11:41 32.36089 130.66215 30918 ft 395 kts 197°
2026-05-04 11:41 32.33362 130.65887 31495 ft 392 kts 197°
2026-05-04 11:41 32.30664 130.65571 32040 ft 387 kts 197°
2026-05-04 11:41 32.27994 130.65258 32519 ft 384 kts 197°
2026-05-04 11:42 32.25340 130.64942 32847 ft 382 kts 197°
2026-05-04 11:42 32.22701 130.64625 33296 ft 380 kts 197°
2026-05-04 11:42 32.20083 130.64312 33772 ft 377 kts 197°
2026-05-04 11:42 32.17479 130.63997 33972 ft 376 kts 197°
2026-05-04 11:43 32.14882 130.63683 34300 ft 375 kts 197°
2026-05-04 11:43 32.12296 130.63373 34643 ft 373 kts 198°
2026-05-04 11:43 32.09710 130.63065 34933 ft 373 kts 198°
2026-05-04 11:43 32.07120 130.62754 35115 ft 375 kts 198°
2026-05-04 11:44 32.04519 130.62440 35356 ft 376 kts 198°
2026-05-04 11:44 32.01919 130.62127 35616 ft 376 kts 198°
2026-05-04 11:44 31.99315 130.61815 35862 ft 376 kts 198°
2026-05-04 11:44 31.96711 130.61504 36058 ft 376 kts 198°
2026-05-04 11:45 31.94097 130.61189 36111 ft 380 kts 198°
2026-05-04 11:45 31.88743 130.60532 36095 ft 392 kts 198°
2026-05-04 11:46 31.83283 130.59884 36112 ft 396 kts 198°
2026-05-04 11:46 31.77800 130.59249 36112 ft 396 kts 198°
2026-05-04 11:47 31.72464 130.58177 36115 ft 377 kts 210°
2026-05-04 11:47 31.70120 130.56925 36073 ft 365 kts 219°
2026-05-04 11:47 31.68096 130.55260 36082 ft 357 kts 227°
2026-05-04 11:48 31.64885 130.50946 36096 ft 350 kts 236°
2026-05-04 11:48 31.61908 130.46412 36144 ft 351 kts 236°
2026-05-04 11:49 31.58916 130.41895 36147 ft 351 kts 236°
2026-05-04 11:49 31.55918 130.37376 36147 ft 351 kts 236°
2026-05-04 11:50 31.52925 130.32856 36147 ft 351 kts 236°
2026-05-04 11:50 31.49929 130.28336 36147 ft 351 kts 236°
2026-05-04 11:51 31.46933 130.23816 36170 ft 351 kts 236°
2026-05-04 11:51 31.43935 130.19299 36162 ft 351 kts 236°
2026-05-04 11:52 31.40929 130.14782 36144 ft 354 kts 236°
2026-05-04 11:52 31.37920 130.10249 36138 ft 351 kts 236°
2026-05-04 11:53 31.34941 130.05726 36140 ft 351 kts 236°
2026-05-04 11:53 31.31967 130.01206 36148 ft 351 kts 236°
2026-05-04 11:55 31.19953 129.83150 36140 ft 352 kts 236°
2026-05-04 11:56 31.16934 129.78638 36162 ft 353 kts 236°
2026-05-04 11:56 31.13915 129.74131 36145 ft 353 kts 236°
2026-05-04 11:57 31.10913 129.69650 36146 ft 353 kts 236°
2026-05-04 11:57 31.07864 129.65114 36158 ft 353 kts 236°
2026-05-04 11:58 31.04854 129.60635 36158 ft 353 kts 236°
2026-05-04 11:58 31.01822 129.56128 36134 ft 353 kts 236°
2026-05-04 11:59 30.98789 129.51622 36140 ft 353 kts 236°
2026-05-04 11:59 30.95752 129.47112 36145 ft 354 kts 236°
2026-05-04 12:00 30.92711 129.42607 36150 ft 354 kts 236°
2026-05-04 12:00 30.89658 129.38109 36156 ft 354 kts 236°
2026-05-04 12:01 30.86610 129.33609 36150 ft 354 kts 236°
2026-05-04 12:02 30.75938 129.17854 36164 ft 354 kts 237°
2026-05-04 12:03 30.72960 129.13295 36121 ft 354 kts 238°
2026-05-04 12:03 30.69984 129.08729 36171 ft 354 kts 237°
2026-05-04 12:04 30.66993 129.04175 36168 ft 355 kts 237°
2026-05-04 12:04 30.63994 128.99623 36179 ft 355 kts 237°
2026-05-04 12:05 30.60998 128.95071 36184 ft 355 kts 237°
2026-05-04 12:05 30.58003 128.90533 36136 ft 354 kts 237°
2026-05-04 12:06 30.55004 128.85999 36182 ft 354 kts 237°
2026-05-04 12:06 30.52005 128.81476 36175 ft 354 kts 237°
2026-05-04 12:07 30.49027 128.76981 36176 ft 354 kts 237°
2026-05-04 12:07 30.46034 128.72454 36178 ft 354 kts 237°
2026-05-04 12:08 30.43036 128.67932 36142 ft 354 kts 237°
2026-05-04 12:08 30.40032 128.63420 36175 ft 354 kts 237°
2026-05-04 12:09 30.37026 128.58908 36177 ft 354 kts 237°
2026-05-04 12:09 30.34020 128.54402 36176 ft 353 kts 237°
2026-05-04 12:10 30.31019 128.49901 36174 ft 353 kts 237°
2026-05-04 12:10 30.28015 128.45403 36147 ft 353 kts 237°
2026-05-04 12:11 30.25012 128.40908 36158 ft 353 kts 237°
2026-05-04 12:11 30.22010 128.36408 36161 ft 353 kts 237°
2026-05-04 12:12 30.19002 128.31913 36166 ft 353 kts 237°
2026-05-04 12:12 30.15989 128.27426 36170 ft 354 kts 237°
2026-05-04 12:14 30.04432 128.10231 36195 ft 354 kts 237°
2026-05-04 12:15 30.00916 128.05028 36166 ft 354 kts 237°
2026-05-04 12:15 29.98405 128.01309 36148 ft 354 kts 237°
2026-05-04 12:16 29.95380 127.96833 36155 ft 354 kts 237°
2026-05-04 12:16 29.92359 127.92358 36190 ft 353 kts 237°
2026-05-04 12:17 29.89337 127.87893 36189 ft 353 kts 237°
2026-05-04 12:17 29.86306 127.83444 36190 ft 353 kts 237°
2026-05-04 12:18 29.83145 127.79094 36155 ft 355 kts 235°
2026-05-04 12:18 29.79898 127.74805 36161 ft 355 kts 235°
2026-05-04 12:19 29.76664 127.70499 36195 ft 356 kts 235°
2026-05-04 12:19 29.73442 127.66188 36196 ft 355 kts 235°
2026-05-04 12:20 29.70223 127.61877 36198 ft 355 kts 235°
2026-05-04 12:20 29.67008 127.57567 36154 ft 355 kts 235°
2026-05-04 12:21 29.63791 127.53259 36162 ft 356 kts 235°
2026-05-04 12:21 29.60553 127.48941 36175 ft 357 kts 235°
2026-05-04 12:22 29.57332 127.44604 36200 ft 356 kts 236°
2026-05-04 12:22 29.54271 127.40163 36198 ft 354 kts 237°
2026-05-04 12:23 29.51269 127.35729 36173 ft 354 kts 237°
2026-05-04 12:23 29.48219 127.31285 36180 ft 355 kts 237°
2026-05-04 12:24 29.45143 127.26848 36183 ft 355 kts 237°
2026-05-04 12:24 29.42068 127.22421 36209 ft 355 kts 237°
2026-05-04 12:25 29.38995 127.17984 36208 ft 355 kts 237°
2026-05-04 12:25 29.35923 127.13551 36158 ft 355 kts 237°
2026-05-04 12:26 29.32838 127.09117 36167 ft 356 kts 237°
2026-05-04 12:26 29.29751 127.04676 36169 ft 357 kts 237°
2026-05-04 12:27 29.26651 127.00234 36179 ft 357 kts 237°
2026-05-04 12:27 29.23549 126.95798 36205 ft 357 kts 237°
2026-05-04 12:28 29.20447 126.91360 36179 ft 357 kts 237°
2026-05-04 12:28 29.17342 126.86916 36175 ft 358 kts 237°
2026-05-04 12:29 29.14230 126.82471 36189 ft 358 kts 237°
2026-05-04 12:29 29.11138 126.78055 36194 ft 358 kts 237°
2026-05-04 12:30 29.08028 126.73611 36217 ft 358 kts 237°
2026-05-04 12:30 29.04907 126.69174 36167 ft 358 kts 236°
2026-05-04 12:31 29.01786 126.64735 36174 ft 359 kts 237°
2026-05-04 12:31 28.98658 126.60284 36180 ft 359 kts 236°
2026-05-04 12:32 28.93899 126.53655 36186 ft 361 kts 235°
2026-05-04 12:33 28.90639 126.49297 36221 ft 361 kts 235°
2026-05-04 12:33 28.87382 126.44945 36188 ft 361 kts 235°
2026-05-04 12:34 28.84132 126.40574 36190 ft 361 kts 235°
2026-05-04 12:34 28.80888 126.36200 36194 ft 361 kts 235°
2026-05-04 12:35 28.77644 126.31828 36198 ft 361 kts 235°
2026-05-04 12:35 28.74393 126.27457 36199 ft 361 kts 235°
2026-05-04 12:36 28.71131 126.23091 36180 ft 362 kts 235°
2026-05-04 12:36 28.67872 126.18725 36183 ft 362 kts 235°
2026-05-04 12:37 28.64606 126.14362 36183 ft 362 kts 235°
2026-05-04 12:37 28.61401 126.09993 36184 ft 361 kts 236°
2026-05-04 12:38 28.58268 126.05525 36193 ft 361 kts 237°
2026-05-04 12:38 28.55136 126.01052 36196 ft 362 kts 236°
2026-05-04 12:39 28.51975 125.96591 36198 ft 362 kts 236°
2026-05-04 12:39 28.48804 125.92141 36198 ft 362 kts 236°
2026-05-04 12:40 28.45637 125.87685 36207 ft 362 kts 236°
2026-05-04 12:40 28.42468 125.83236 36201 ft 362 kts 236°
2026-05-04 12:41 28.39297 125.78788 36166 ft 363 kts 236°
2026-05-04 12:41 28.36117 125.74330 36189 ft 363 kts 236°
2026-05-04 12:42 28.32931 125.69871 36198 ft 364 kts 236°
2026-05-04 12:42 28.29747 125.65417 36204 ft 363 kts 236°
2026-05-04 12:43 28.26562 125.60960 36196 ft 363 kts 236°
2026-05-04 12:43 28.23376 125.56508 36200 ft 363 kts 236°
2026-05-04 12:44 28.20181 125.52054 36175 ft 365 kts 236°
2026-05-04 12:44 28.16966 125.47594 36193 ft 365 kts 236°
2026-05-04 12:45 28.13758 125.43135 36199 ft 365 kts 236°
2026-05-04 12:45 28.10557 125.38676 36209 ft 364 kts 236°
2026-05-04 12:46 28.07351 125.34230 36208 ft 364 kts 236°
2026-05-04 12:46 28.04144 125.29784 36162 ft 365 kts 236°
2026-05-04 12:47 28.00921 125.25320 36156 ft 367 kts 236°
2026-05-04 12:47 27.97686 125.20847 36196 ft 367 kts 236°
2026-05-04 12:48 27.94450 125.16375 36197 ft 367 kts 236°
2026-05-04 12:48 27.91220 125.11906 36199 ft 367 kts 236°
2026-05-04 12:49 27.87979 125.07440 36170 ft 368 kts 236°
2026-05-04 12:49 27.84756 125.02997 36179 ft 369 kts 236°
2026-05-04 12:50 27.81498 124.98510 36203 ft 370 kts 236°
2026-05-04 12:50 27.78238 124.94021 36209 ft 370 kts 236°
2026-05-04 12:51 27.74968 124.89543 36208 ft 369 kts 236°
2026-05-04 12:51 27.71704 124.85070 36209 ft 369 kts 236°
2026-05-04 12:52 27.68445 124.80593 36165 ft 370 kts 236°
2026-05-04 12:52 27.65175 124.76105 36170 ft 371 kts 236°
2026-05-04 12:53 27.61891 124.71615 36198 ft 371 kts 236°
2026-05-04 12:53 27.58610 124.67120 36202 ft 371 kts 236°
2026-05-04 12:54 27.55332 124.62642 36201 ft 370 kts 236°
2026-05-04 12:54 27.52045 124.58166 36167 ft 371 kts 236°
2026-05-04 12:55 27.48762 124.53669 36170 ft 372 kts 236°
2026-05-04 12:55 27.45461 124.49169 36175 ft 373 kts 236°
2026-05-04 12:56 27.42147 124.44669 36192 ft 373 kts 236°
2026-05-04 12:56 27.38836 124.40167 36198 ft 373 kts 236°
2026-05-04 12:57 27.35551 124.35693 36202 ft 373 kts 236°
2026-05-04 12:57 27.32238 124.31196 36181 ft 374 kts 236°
2026-05-04 12:58 27.28911 124.26679 36186 ft 375 kts 236°
2026-05-04 12:58 27.25576 124.22166 36192 ft 376 kts 236°
2026-05-04 12:59 27.22244 124.17645 36208 ft 376 kts 236°
2026-05-04 12:59 27.18904 124.13135 36210 ft 376 kts 236°
2026-05-04 13:00 27.15562 124.08623 36179 ft 376 kts 236°
2026-05-04 13:00 27.12212 124.04111 36192 ft 377 kts 236°
2026-05-04 13:01 27.08845 123.99585 36196 ft 378 kts 236°
2026-05-04 13:01 27.05464 123.95071 36231 ft 378 kts 235°
2026-05-04 13:02 27.02070 123.90569 36225 ft 378 kts 235°
2026-05-04 13:02 26.98682 123.86069 36177 ft 377 kts 235°
2026-05-04 13:03 26.95869 123.82337 36180 ft 377 kts 235°
2026-05-04 13:03 26.92476 123.77844 36191 ft 378 kts 235°
2026-05-04 13:04 26.89075 123.73349 36192 ft 378 kts 235°
2026-05-04 13:04 26.85667 123.68851 36198 ft 379 kts 235°
2026-05-04 13:05 26.82268 123.64357 36215 ft 378 kts 235°
2026-05-04 13:05 26.78870 123.59869 36214 ft 378 kts 235°
2026-05-04 13:06 26.75469 123.55389 36209 ft 377 kts 235°
2026-05-04 13:06 26.72073 123.50916 36205 ft 377 kts 235°
2026-05-04 13:07 26.68677 123.46448 36201 ft 377 kts 235°
2026-05-04 13:07 26.65280 123.41984 36200 ft 377 kts 235°
2026-05-04 13:08 26.61887 123.37528 36196 ft 377 kts 235°
2026-05-04 13:08 26.58486 123.33067 36182 ft 377 kts 235°
2026-05-04 13:09 26.55086 123.28601 36185 ft 378 kts 235°
2026-05-04 13:09 26.51673 123.24130 36184 ft 378 kts 235°
2026-05-04 13:10 26.48248 123.19669 36187 ft 378 kts 235°
2026-05-04 13:10 26.44823 123.15207 36198 ft 378 kts 235°
2026-05-04 13:11 26.41402 123.10740 36162 ft 378 kts 235°
2026-05-04 13:11 26.37979 123.06272 36161 ft 380 kts 235°
2026-05-04 13:12 26.34536 123.01796 36169 ft 381 kts 235°
2026-05-04 13:12 26.31085 122.97314 36174 ft 381 kts 235°
2026-05-04 13:13 26.27639 122.92831 36175 ft 381 kts 235°
2026-05-04 13:13 26.24184 122.88340 36197 ft 381 kts 235°
2026-05-04 13:14 26.20732 122.83859 36166 ft 381 kts 235°
2026-05-04 13:14 26.17266 122.79376 36167 ft 382 kts 235°
2026-05-04 13:15 26.13804 122.74898 36172 ft 382 kts 235°
2026-05-04 13:15 26.10353 122.70440 36184 ft 382 kts 235°
2026-05-04 13:16 26.06887 122.65957 36183 ft 382 kts 235°
2026-05-04 13:16 26.03411 122.61478 36166 ft 383 kts 234°
2026-05-04 13:17 25.99932 122.57000 36165 ft 383 kts 234°
2026-05-04 13:17 25.96452 122.52517 36174 ft 383 kts 234°
2026-05-04 13:18 25.92969 122.48037 35959 ft 384 kts 234°
2026-05-04 13:18 25.91219 122.45785 35523 ft 384 kts 234°
2026-05-04 13:18 25.89470 122.43533 34733 ft 389 kts 234°
2026-05-04 13:18 25.87693 122.41244 33870 ft 393 kts 234°
2026-05-04 13:19 25.85890 122.38926 32886 ft 399 kts 233°
2026-05-04 13:19 25.84068 122.36585 31944 ft 403 kts 233°
2026-05-04 13:19 25.82229 122.34224 31037 ft 406 kts 233°
2026-05-04 13:19 25.80368 122.31840 30012 ft 411 kts 232°
2026-05-04 13:20 25.78480 122.29425 28843 ft 416 kts 232°
2026-05-04 13:20 25.76577 122.26991 27703 ft 420 kts 232°
2026-05-04 13:20 25.74655 122.24536 26614 ft 423 kts 232°
2026-05-04 13:20 25.72720 122.22065 25552 ft 426 kts 232°
2026-05-04 13:21 25.70785 122.19596 24522 ft 420 kts 232°
2026-05-04 13:21 25.68892 122.17179 23513 ft 412 kts 231°
2026-05-04 13:21 25.67038 122.14808 22509 ft 402 kts 232°
2026-05-04 13:21 25.65232 122.12505 21748 ft 390 kts 232°
2026-05-04 13:22 25.63489 122.10272 20969 ft 387 kts 233°
2026-05-04 13:22 25.61966 122.07795 20227 ft 383 kts 243°
2026-05-04 13:22 25.60904 122.05117 19810 ft 380 kts 252°
2026-05-04 13:22 25.60156 122.02251 19548 ft 391 kts 254°
2026-05-04 13:23 25.59417 121.99337 19216 ft 393 kts 254°
2026-05-04 13:23 25.58673 121.96433 18888 ft 392 kts 254°
2026-05-04 13:23 25.57939 121.93571 18563 ft 391 kts 254°
2026-05-04 13:23 25.57198 121.90680 18200 ft 389 kts 254°
2026-05-04 13:24 25.56462 121.87807 17877 ft 387 kts 254°
2026-05-04 13:24 25.55728 121.84944 17550 ft 386 kts 254°
2026-05-04 13:24 25.54997 121.82085 17224 ft 385 kts 254°
2026-05-04 13:25 25.53555 121.76423 16577 ft 381 kts 254°
2026-05-04 13:25 25.52835 121.73605 16253 ft 379 kts 254°
2026-05-04 13:25 25.52114 121.70799 15929 ft 378 kts 254°
2026-05-04 13:25 25.51392 121.68002 15610 ft 377 kts 254°
2026-05-04 13:26 25.50673 121.65212 15299 ft 376 kts 254°
2026-05-04 13:26 25.49956 121.62431 14980 ft 375 kts 254°
2026-05-04 13:26 25.49208 121.59674 14655 ft 374 kts 250°
2026-05-04 13:26 25.48091 121.57085 14352 ft 374 kts 240°
2026-05-04 13:27 25.46540 121.54775 14034 ft 375 kts 231°
2026-05-04 13:27 25.44837 121.52612 13696 ft 374 kts 231°
2026-05-04 13:27 25.43130 121.50428 13364 ft 373 kts 232°
2026-05-04 13:27 25.41441 121.48259 13027 ft 372 kts 232°
2026-05-04 13:28 25.39762 121.46100 12613 ft 369 kts 231°
2026-05-04 13:28 25.38081 121.43945 12302 ft 368 kts 231°
2026-05-04 13:28 25.36414 121.41812 11996 ft 366 kts 231°
2026-05-04 13:28 25.34749 121.39684 11677 ft 365 kts 231°
2026-05-04 13:29 25.33090 121.37571 11370 ft 362 kts 231°
2026-05-04 13:29 25.31475 121.35516 11158 ft 345 kts 231°
2026-05-04 13:29 25.29941 121.33566 11040 ft 328 kts 231°
2026-05-04 13:29 25.28479 121.31708 10914 ft 313 kts 231°
2026-05-04 13:30 25.27085 121.29931 10790 ft 300 kts 231°
2026-05-04 13:30 25.25743 121.28221 10672 ft 289 kts 231°
2026-05-04 13:30 25.24451 121.26575 10553 ft 279 kts 231°
2026-05-04 13:30 25.23198 121.24980 10353 ft 272 kts 231°
2026-05-04 13:31 25.21977 121.23422 10257 ft 265 kts 232°
2026-05-04 13:31 25.20785 121.21906 10159 ft 262 kts 232°
2026-05-04 13:31 25.19580 121.20369 10076 ft 266 kts 231°
2026-05-04 13:31 25.18383 121.18844 9923 ft 261 kts 232°
2026-05-04 13:32 25.17199 121.17338 9696 ft 260 kts 231°
2026-05-04 13:32 25.16017 121.15835 9389 ft 260 kts 231°
2026-05-04 13:32 25.14828 121.14326 8695 ft 263 kts 230°
2026-05-04 13:32 25.13624 121.12801 8077 ft 262 kts 230°
2026-05-04 13:33 25.12452 121.11317 7651 ft 254 kts 230°
2026-05-04 13:33 25.11284 121.09838 7115 ft 251 kts 230°
2026-05-04 13:33 25.10143 121.08389 6561 ft 250 kts 229°
2026-05-04 13:33 25.08987 121.06918 5840 ft 255 kts 229°
2026-05-04 13:34 25.07831 121.05444 5333 ft 250 kts 229°
2026-05-04 13:34 25.06705 121.04010 4852 ft 246 kts 229°
2026-05-04 13:34 25.05589 121.02589 4246 ft 246 kts 229°
2026-05-04 13:34 25.04314 121.01318 3480 ft 253 kts 207°
2026-05-04 13:35 25.02629 121.00855 3102 ft 248 kts 176°
2026-05-04 13:35 24.99887 121.02231 2987 ft 199 kts 135°
2026-05-04 13:35 24.98914 121.03235 3012 ft 188 kts 134°
2026-05-04 13:36 24.97975 121.04205 3000 ft 187 kts 135°
2026-05-04 13:36 24.97111 121.05253 2998 ft 183 kts 120°
2026-05-04 13:36 24.96690 121.06587 2999 ft 183 kts 96°
2026-05-04 13:36 24.96819 121.07946 2998 ft 183 kts 72°
2026-05-04 13:37 24.97450 121.09123 2934 ft 172 kts 51°
2026-05-04 13:37 24.98215 121.10087 2778 ft 167 kts 52°
2026-05-04 13:37 24.98979 121.11052 2586 ft 162 kts 53°
2026-05-04 13:37 24.99462 121.11662 2445 ft 158 kts 52°
2026-05-04 13:38 25.00399 121.12850 2186 ft 150 kts 53°
2026-05-04 13:38 25.01088 121.13725 1989 ft 153 kts 52°
2026-05-04 13:38 25.01780 121.14601 1796 ft 147 kts 54°
2026-05-04 13:38 25.02443 121.15444 1587 ft 149 kts 53°
2026-05-04 13:39 25.03090 121.16262 1410 ft 134 kts 52°
2026-05-04 13:39 25.03693 121.17029 1226 ft 131 kts 52°
2026-05-04 13:39 25.04289 121.17785 1054 ft 129 kts 51°
2026-05-04 13:39 25.04877 121.18531 857 ft 131 kts 51°
2026-05-04 13:40 25.05469 121.19285 692 ft 129 kts 50°
2026-05-04 13:40 25.06065 121.20045 488 ft 131 kts 49°
2026-05-04 13:40 25.06647 121.20780 325 ft 126 kts 49°
2026-05-04 13:40 25.07240 121.21531 163 ft 132 kts 50°
2026-05-04 13:41 25.07781 121.22222 105 ft 104 kts 49°
2026-05-04 13:41 25.08158 121.22700 88 ft 58 kts 49°
2026-05-04 13:41 25.08316 121.22911 99 ft 23 kts 51°
2026-05-04 13:42 25.08435 121.23141 100 ft 14 kts 76°
2026-05-04 13:42 25.08450 121.23232 101 ft 11 kts 80°
2026-05-04 13:42 25.08462 121.23306 101 ft 9 kts 80°
2026-05-04 13:42 25.08472 121.23368 101 ft 7 kts 79°
2026-05-04 13:43 25.08480 121.23415 100 ft 6 kts 79°
2026-05-04 13:43 25.08477 121.23453 101 ft 6 kts 116°
2026-05-04 13:43 25.08428 121.23522 101 ft 14 kts 99°
2026-05-04 13:43 25.08477 121.23599 101 ft 9 kts 49°
2026-05-04 13:44 25.08497 121.23636 101 ft 4 kts 90°
2026-05-04 13:44 25.08481 121.23651 101 ft 2 kts 139°
2026-05-04 13:44 25.08460 121.23671 100 ft 6 kts 139°
2026-05-04 13:44 25.08430 121.23700 101 ft 5 kts 139°
2026-05-04 13:45 25.08407 121.23722 101 ft 4 kts 139°
2026-05-04 13:45 25.08394 121.23735 101 ft 0 kts 139°